Terug naar catalogus

STARLINK-11552

ActiefCommunicatieVLEO
NORAD 62907·PAYLOAD·🇺🇸 United States

Gelanceerd Feb 8, 2025 vanaf Cape Canaveral Space Force Station

Loading…

Volgende Passages (komende 24 uur)

TLE

VersSource: CelesTrak SupGP

Epoch: Sep 15, 2026, 02:02 UTC

1 62907C 25027A   26258.08520833  .00066855  00000+0  51917-3 0  2585
2 62907  43.0002 286.1591 0001402 259.5088 254.9293 15.70809817    12

Volg STARLINK-11552 in realtime met AllMySat

Download on the App Store